TimeCST,TemperatureF,Dew PointF,Humidity,Sea Level PressureIn,VisibilityMPH,Wind Direction,Wind SpeedMPH,Gust SpeedMPH,PrecipitationIn,Events,Conditions,WindDirDegrees,DateUTC
12:09 AM,26.6,24.8,93,29.91,10.0,Calm,Calm,-,N/A,,Overcast,0,2013-02-24 06:09:00
12:32 AM,26.6,24.8,93,29.92,10.0,West,3.5,-,N/A,,Overcast,280,2013-02-24 06:32:00
12:53 AM,27.0,25.0,92,29.96,8.0,NNW,3.5,-,N/A,,Overcast,330,2013-02-24 06:53:00
1:05 AM,26.6,24.8,93,29.92,7.0,Calm,Calm,-,N/A,,Overcast,0,2013-02-24 07:05:00
1:20 AM,26.6,24.8,93,29.93,7.0,Calm,Calm,-,N/A,,Overcast,0,2013-02-24 07:20:00
1:53 AM,25.0,24.1,96,29.98,5.0,Calm,Calm,-,N/A,,Overcast,0,2013-02-24 07:53:00
2:53 AM,26.1,25.0,96,29.99,7.0,Calm,Calm,-,N/A,,Overcast,0,2013-02-24 08:53:00
3:46 AM,26.6,24.8,93,29.95,10.0,Calm,Calm,-,N/A,,Overcast,0,2013-02-24 09:46:00
3:53 AM,26.1,25.0,96,29.99,10.0,Calm,Calm,-,N/A,,Overcast,0,2013-02-24 09:53:00
4:53 AM,25.0,23.0,92,30.01,10.0,Calm,Calm,-,N/A,,Overcast,0,2013-02-24 10:53:00
5:41 AM,26.6,24.8,93,29.98,10.0,Calm,Calm,-,N/A,,Overcast,0,2013-02-24 11:41:00
6:08 AM,26.6,24.8,93,29.99,9.0,Calm,Calm,-,N/A,,Overcast,0,2013-02-24 12:08:00
6:15 AM,26.6,24.8,93,29.99,9.0,Calm,Calm,-,N/A,,Overcast,0,2013-02-24 12:15:00
6:53 AM,26.1,24.1,92,30.04,10.0,SSE,3.5,-,N/A,,Overcast,160,2013-02-24 12:53:00
7:53 AM,27.0,25.0,92,30.05,10.0,SSE,3.5,-,N/A,,Overcast,160,2013-02-24 13:53:00
8:05 AM,26.6,24.8,93,30.02,9.0,SSW,3.5,-,N/A,,Overcast,210,2013-02-24 14:05:00
8:13 AM,26.6,26.6,100,30.02,9.0,Calm,Calm,-,N/A,,Overcast,0,2013-02-24 14:13:00
8:53 AM,28.9,26.1,89,30.06,10.0,SW,3.5,-,N/A,,Overcast,230,2013-02-24 14:53:00
9:24 AM,28.4,26.6,93,30.03,10.0,West,3.5,-,N/A,,Overcast,260,2013-02-24 15:24:00
9:53 AM,30.0,27.0,88,30.08,10.0,West,3.5,-,N/A,,Overcast,260,2013-02-24 15:53:00
10:26 AM,30.2,26.6,86,30.05,10.0,West,4.6,-,N/A,,Overcast,260,2013-02-24 16:26:00
10:53 AM,32.0,27.0,82,30.09,10.0,Calm,Calm,-,N/A,,Overcast,0,2013-02-24 16:53:00
11:53 AM,32.0,25.0,75,30.10,10.0,SW,3.5,-,N/A,,Overcast,220,2013-02-24 17:53:00
12:12 PM,32.0,24.8,75,30.06,10.0,SSW,3.5,-,N/A,,Overcast,200,2013-02-24 18:12:00
12:53 PM,33.1,24.1,70,30.09,10.0,SW,3.5,-,N/A,,Overcast,220,2013-02-24 18:53:00
1:49 PM,33.8,23.0,65,30.05,10.0,Calm,Calm,-,N/A,,Overcast,0,2013-02-24 19:49:00
1:53 PM,34.0,21.9,61,30.09,10.0,Calm,Calm,-,N/A,,Overcast,0,2013-02-24 19:53:00
2:53 PM,35.1,23.0,61,30.09,10.0,Calm,Calm,-,N/A,,Overcast,0,2013-02-24 20:53:00
3:53 PM,34.0,24.1,67,30.09,10.0,SSE,3.5,-,N/A,,Overcast,150,2013-02-24 21:53:00
4:53 PM,34.0,24.1,67,30.09,10.0,Calm,Calm,-,N/A,,Mostly Cloudy,0,2013-02-24 22:53:00
5:53 PM,30.0,24.1,79,30.09,10.0,Calm,Calm,-,N/A,,Partly Cloudy,0,2013-02-24 23:53:00
6:53 PM,28.9,23.0,78,30.10,10.0,South,3.5,-,N/A,,Clear,170,2013-02-25 00:53:00
7:53 PM,26.1,21.9,84,30.11,10.0,South,3.5,-,N/A,,Clear,180,2013-02-25 01:53:00
8:53 PM,23.0,19.9,88,30.12,10.0,SSW,5.8,-,N/A,,Clear,210,2013-02-25 02:53:00
9:53 PM,25.0,21.0,85,30.12,10.0,SSW,3.5,-,N/A,,Clear,200,2013-02-25 03:53:00
10:53 PM,19.9,18.0,92,30.12,10.0,SSW,3.5,-,N/A,,Clear,200,2013-02-25 04:53:00
11:53 PM,18.0,16.0,92,30.12,10.0,SSW,3.5,-,N/A,,Clear,200,2013-02-25 05:53:00